Content
SEND FEEDBACK

Daily
Averages
Monthly
Summary
United States of America

INARAJAN, GUAM


Home > North America > United States > Guam
Elevation: 280 feet     Latitude: 13 18N     Longitude: 144 44E

WEATHER
 
SELECT A DAY
Number of Records: 354,701;   Date Range: 1/1/95 - 11/26/14
 
SHARE

PRINT THIS DATA

[ ← Previous Day ]
WEATHER ALMANAC - JUNE 7, 2014
[ Next Day → ]
[ °C ]   °F
Weather ElementAverageHighLow
Temperature82.6 °F86 °F (10:43 am)77.7 °F (5:58 am)
Dewpoint74.8 °F75.4 °F (8:58 am)73.4 °F (5:58 am)
Humidity77.4 %86 % (2:58 am)70 % (10:38 am)
Barometer29.76 in29.79 in (8:33 am)29.70 in (2:58 pm)
Wind Speed7.3 mph10.4 mph (12:58 pm)
Weather ElementAverage
Visibility10 mi
Wind DirectionENE (77.5 °)

Weather ElementTotal
Precipitation---
Cooling Degree Days16.9 (Base 65)
Growing Degree Days31.9 (Base 50)
Averaged from 32 records on June 7, 2014
WEATHER CONDITIONS BREAKOUT
WIND DIRECTION BREAKOUT
WEATHER BY HOUR - JUNE 7, 2014
[ °C ]   °F
Local TimeTemperatureDewpointHumidityBarometerVisibilityWind DirectionWind SpeedGust SpeedPrecipitationEventsConditions
2:58 AM77.9 °F73.6 °F86 %29.73 in10.0 miESE (110°)3.5 mphClear
3:58 AM78.6 °F73.8 °F85 %29.73 in10.0 miNE (40°)3.5 mphClear
4:58 AM78.4 °F73.9 °F86 %29.74 in10.0 miENE (60°)4.6 mphClear
5:58 AM77.7 °F73.4 °F86 %29.75 in10.0 miCalmClear
6:58 AM80.1 °F74.7 °F83 %29.76 in10.0 miEast (90°)5.8 mphClear
7:58 AM82.4 °F74.8 °F78 %29.76 in10.0 miENE (70°)5.8 mphPartly Cloudy
8:33 AM82.4 °F75.2 °F79 %29.79 in10.0 miEast (80°)8.1 mphMostly Cloudy
8:38 AM82.4 °F75.2 °F79 %29.79 in10.0 miEast (80°)6.9 mphScattered Clouds
8:43 AM84.2 °F75.2 °F74 %29.79 in10.0 miENE (60°)6.9 mphMostly Cloudy
8:58 AM83.3 °F75.4 °F77 %29.76 in10.0 miEast (80°)6.9 mphMostly Cloudy
9:42 AM84.2 °F75.2 °F74 %29.79 in10.0 miENE (70°)8.1 mphScattered Clouds
9:47 AM84.2 °F75.2 °F74 %29.79 in10.0 miENE (70°)8.1 mphMostly Cloudy
9:52 AM84.2 °F75.2 °F74 %29.79 in10.0 miEast (90°)9.2 mphMostly Cloudy
9:57 AM84.2 °F75.2 °F74 %29.79 in10.0 miENE (70°)6.9 mphScattered Clouds
9:58 AM84.4 °F74.7 °F72 %29.76 in10.0 miENE (70°)6.9 mphScattered Clouds
10:38 AM84.2 °F73.4 °F70 %29.78 in10.0 miENE (60°)9.2 mphScattered Clouds
10:43 AM86.0 °F75.2 °F70 %29.78 in10.0 miENE (60°)5.8 mphScattered Clouds
10:58 AM85.3 °F74.8 °F71 %29.75 in10.0 miENE (60°)8.1 mphScattered Clouds
11:58 AM85.5 °F75.2 °F71 %29.74 in10.0 miESE (110°)8.1 mphPartly Cloudy
12:58 PM86.0 °F75.2 °F70 %29.73 in10.0 miEast (80°)10.4 mphMostly Cloudy
1:08 PM84.2 °F75.2 °F74 %29.75 in10.0 miEast (100°)8.1 mphScattered Clouds
1:58 PM84.9 °F75.2 °F73 %29.71 in10.0 miEast (100°)10.4 mphPartly Cloudy
2:58 PM84.9 °F74.1 °F70 %29.70 in10.0 miESE (110°)8.1 mphScattered Clouds
3:58 PM84.7 °F75.2 °F73 %29.70 in10.0 miEast (80°)10.4 mphPartly Cloudy
4:58 PM83.8 °F74.3 °F73 %29.70 in10.0 miEast (90°)10.4 mphClear
5:58 PM82.4 °F75.0 °F78 %29.72 in10.0 miEast (80°)10.4 mphClear
6:58 PM81.0 °F73.8 °F79 %29.73 in10.0 miEast (100°)8.1 mphPartly Cloudy
7:58 PM80.6 °F74.8 °F83 %29.79 in10.0 miEast (90°)6.9 mphPartly Cloudy
8:58 PM80.2 °F75.2 °F85 %29.77 in10.0 miEast (80°)6.9 mphPartly Cloudy
9:58 PM79.9 °F75.2 °F86 %29.78 in10.0 miEast (80°)8.1 mphPartly Cloudy
10:58 PM80.1 °F75.2 °F85 %29.78 in10.0 miEast (80°)5.8 mphClear
11:58 PM79.3 °F74.8 °F86 %29.77 in10.0 miEast (80°)8.1 mphPartly Cloudy
Hourly data recorded from PGUA, located miles away from Inarajan, Guam







STORIES FROM OUR PARTNERS